• In Czech Republic
  • List of Countries
  • For 7 days
  • Water Temperature
  • Satellite Maps
  • Weather Map
  • Weather Widgets
  • user-avatar
    Login

    Hourly Weather Al-Budajji

    Today, 21 May, Monday

    Time Temperature Precipitation Wind Pressure Humidity
    00:00 +31°C° 0 mm 3 mps 758 mmHg 60%
    01:00 +31°C° 0 mm 3 mps 758 mmHg 61%
    02:00 +31°C° 0 mm 3 mps 758 mmHg 61%
    03:00 +31°C° 0 mm 3 mps 758 mmHg 62%
    04:00 +31°C° 0 mm 2 mps 758 mmHg 63%
    05:00 +31°C° 0 mm 2 mps 758 mmHg 63%
    06:00 +31°C° 0 mm 2 mps 759 mmHg 64%
    07:00 +31°C° 0 mm 1 mps 759 mmHg 64%
    08:00 +31°C° 0 mm 1 mps 759 mmHg 64%
    09:00 +31°C° 0 mm 1 mps 759 mmHg 64%
    10:00 +31°C° 0 mm 1 mps 760 mmHg 64%
    11:00 +32°C° 0 mm 1 mps 760 mmHg 62%
    12:00 +32°C° 0 mm 1 mps 760 mmHg 61%
    13:00 +32°C° 0 mm 1 mps 760 mmHg 60%
    14:00 +33°C° 0 mm 1 mps 759 mmHg 57%
    15:00 +34°C° 0 mm 2 mps 759 mmHg 55%
    16:00 +34°C° 0 mm 2 mps 759 mmHg 53%
    17:00 +34°C° 0 mm 3 mps 759 mmHg 54%
    18:00 +34°C° 0 mm 3 mps 759 mmHg 54%
    19:00 +33°C° 0 mm 4 mps 759 mmHg 55%
    20:00 +33°C° 0 mm 4 mps 759 mmHg 55%
    21:00 +33°C° 0 mm 5 mps 759 mmHg 55%
    22:00 +33°C° 0 mm 5 mps 759 mmHg 55%
    23:00 +33°C° 0 mm 5 mps 759 mmHg 56%

    Tomorrow, 22 May, Tuesday

    Time Temperature Precipitation Wind Pressure Humidity
    00:00 +33°C° 0 mm 5 mps 758 mmHg 57%
    01:00 +33°C° 0 mm 5 mps 758 mmHg 58%
    02:00 +33°C° 0 mm 4 mps 758 mmHg 57%
    03:00 +33°C° 0 mm 4 mps 758 mmHg 57%
    04:00 +33°C° 0 mm 4 mps 758 mmHg 56%
    05:00 +33°C° 0 mm 3 mps 758 mmHg 56%
    06:00 +33°C° 0 mm 3 mps 759 mmHg 56%
    07:00 +32°C° 0 mm 2 mps 759 mmHg 56%
    08:00 +34°C° 0 mm 2 mps 759 mmHg 57%
    09:00 +34°C° 0 mm 2 mps 760 mmHg 57%
    10:00 +33°C° 0 mm 1 mps 760 mmHg 58%
    11:00 +33°C° 0 mm 1 mps 760 mmHg 57%
    12:00 +34°C° 0 mm 1 mps 760 mmHg 56%
    13:00 +34°C° 0 mm 1 mps 760 mmHg 55%
    14:00 +35°C° 0 mm 2 mps 759 mmHg 54%
    15:00 +35°C° 0 mm 2 mps 759 mmHg 53%
    16:00 +36°C° 0 mm 2 mps 758 mmHg 51%
    17:00 +35°C° 0 mm 3 mps 758 mmHg 52%
    18:00 +35°C° 0 mm 3 mps 758 mmHg 53%
    19:00 +34°C° 0 mm 3 mps 758 mmHg 54%
    20:00 +34°C° 0 mm 4 mps 758 mmHg 55%
    21:00 +34°C° 0 mm 4 mps 758 mmHg 56%
    22:00 +33°C° 0 mm 4 mps 758 mmHg 57%
    23:00 +33°C° 0 mm 4 mps 758 mmHg 58%

    Day after tomorrow, 23 May, Wednesday

    Time Temperature Precipitation Wind Pressure Humidity
    00:00 +33°C° 0 mm 4 mps 758 mmHg 60%
    01:00 +33°C° 0 mm 4 mps 758 mmHg 61%
    02:00 +33°C° 0 mm 3 mps 758 mmHg 61%
    03:00 +33°C° 0 mm 3 mps 758 mmHg 61%
    04:00 +32°C° 0 mm 2 mps 757 mmHg 61%
    05:00 +32°C° 0 mm 2 mps 758 mmHg 62%
    06:00 +32°C° 0 mm 1 mps 758 mmHg 63%
    07:00 +32°C° 0 mm 1 mps 758 mmHg 64%
    08:00 +32°C° 0 mm 1 mps 758 mmHg 63%
    09:00 +32°C° 0 mm 1 mps 758 mmHg 63%
    10:00 +33°C° 0 mm 1 mps 759 mmHg 62%
    11:00 +33°C° 0 mm 1 mps 758 mmHg 63%
    12:00 +31°C° 0 mm 0 mps 758 mmHg 63%
    13:00 +32°C° 0 mm 0 mps 758 mmHg 64%
    14:00 +35°C° 0 mm 2 mps 758 mmHg 61%
    15:00 +34°C° 0 mm 4 mps 757 mmHg 58%
    16:00 +34°C° 0 mm 6 mps 757 mmHg 55%
    17:00 +34°C° 0 mm 5 mps 757 mmHg 57%
    18:00 +34°C° 0 mm 5 mps 757 mmHg 58%
    19:00 +33°C° 0 mm 4 mps 757 mmHg 59%
    20:00 +33°C° 0 mm 4 mps 757 mmHg 59%
    21:00 +33°C° 0 mm 3 mps 757 mmHg 59%
    22:00 +32°C° 0 mm 2 mps 757 mmHg 59%
    23:00 +33°C° 0 mm 3 mps 757 mmHg 58%

    24 May, Thursday

    Time Temperature Precipitation Wind Pressure Humidity
    00:00 +33°C° 0 mm 3 mps 756 mmHg 57%
    01:00 +33°C° 0 mm 3 mps 756 mmHg 55%
    02:00 +32°C° 0 mm 2 mps 756 mmHg 56%
    03:00 +32°C° 0 mm 2 mps 755 mmHg 57%
    04:00 +32°C° 0 mm 1 mps 755 mmHg 57%
    05:00 +32°C° 0 mm 1 mps 755 mmHg 58%
    06:00 +32°C° 0 mm 1 mps 756 mmHg 58%
    07:00 +32°C° 0 mm 1 mps 756 mmHg 58%
    08:00 +32°C° 0 mm 2 mps 756 mmHg 56%
    09:00 +34°C° 0 mm 2 mps 757 mmHg 54%
    10:00 +34°C° 0 mm 3 mps 757 mmHg 52%
    11:00 +34°C° 0 mm 3 mps 757 mmHg 53%
    12:00 +34°C° 0 mm 3 mps 756 mmHg 54%
    13:00 +34°C° 0 mm 3 mps 756 mmHg 55%
    14:00 +34°C° 0 mm 3 mps 756 mmHg 55%
    15:00 +34°C° 0 mm 2 mps 755 mmHg 56%
    16:00 +34°C° 0 mm 2 mps 755 mmHg 57%
    17:00 +34°C° 0 mm 2 mps 755 mmHg 56%
    18:00 +34°C° 0 mm 2 mps 755 mmHg 56%
    19:00 +34°C° 0 mm 2 mps 755 mmHg 56%
    20:00 +34°C° 0 mm 2 mps 755 mmHg 55%
    21:00 +34°C° 0 mm 2 mps 755 mmHg 54%
    22:00 +34°C° 0 mm 2 mps 755 mmHg 53%
    23:00 +34°C° 0 mm 2 mps 755 mmHg 51%

    25 May, Friday

    Time Temperature Precipitation Wind Pressure Humidity
    00:00 +34°C° 0 mm 3 mps 755 mmHg 50%
    01:00 +34°C° 0 mm 4 mps 754 mmHg 49%
    02:00 +34°C° 0 mm 3 mps 754 mmHg 51%
    03:00 +34°C° 0 mm 3 mps 754 mmHg 53%
    04:00 +34°C° 0 mm 3 mps 753 mmHg 55%
    05:00 +34°C° 0 mm 3 mps 754 mmHg 57%
    06:00 +34°C° 0 mm 3 mps 754 mmHg 58%
    07:00 +33°C° 0 mm 3 mps 755 mmHg 59%
    08:00 +33°C° 0 mm 3 mps 755 mmHg 60%
    09:00 +34°C° 0 mm 3 mps 755 mmHg 61%
    10:00 +34°C° 0 mm 2 mps 756 mmHg 62%
    11:00 +34°C° 0 mm 3 mps 755 mmHg 61%
    12:00 +34°C° 0 mm 3 mps 755 mmHg 61%
    13:00 +34°C° 0 mm 4 mps 755 mmHg 60%
    14:00 +34°C° 0 mm 3 mps 755 mmHg 61%
    15:00 +34°C° 0 mm 2 mps 754 mmHg 62%
    16:00 +34°C° 0 mm 1 mps 754 mmHg 63%
    17:00 +35°C° 0 mm 2 mps 754 mmHg 60%
    18:00 +35°C° 0 mm 2 mps 754 mmHg 58%
    19:00 +35°C° 0 mm 3 mps 754 mmHg 55%
    20:00 +34°C° 0 mm 3 mps 754 mmHg 55%
    21:00 +34°C° 0 mm 3 mps 754 mmHg 54%
    22:00 +34°C° 0 mm 3 mps 754 mmHg 53%
    23:00 +34°C° 0 mm 3 mps 754 mmHg 53%

    26 May, Saturday

    Time Temperature Precipitation Wind Pressure Humidity
    00:00 +34°C° 0 mm 3 mps 754 mmHg 53%
    01:00 +34°C° 0 mm 2 mps 753 mmHg 53%
    02:00 +34°C° 0 mm 3 mps 753 mmHg 53%
    03:00 +34°C° 0 mm 3 mps 753 mmHg 53%
    04:00 +34°C° 0 mm 3 mps 753 mmHg 53%
    05:00 +34°C° 0 mm 3 mps 754 mmHg 55%
    06:00 +34°C° 0 mm 3 mps 754 mmHg 57%
    07:00 +34°C° 0 mm 3 mps 755 mmHg 58%
    08:00 +34°C° 0 mm 3 mps 755 mmHg 59%
    09:00 +34°C° 0 mm 3 mps 755 mmHg 60%
    10:00 +34°C° 0 mm 3 mps 756 mmHg 61%
    11:00 +34°C° 0 mm 2 mps 755 mmHg 63%
    12:00 +34°C° 0 mm 2 mps 755 mmHg 65%
    13:00 +34°C° 0 mm 2 mps 755 mmHg 67%
    14:00 +34°C° 0 mm 2 mps 755 mmHg 65%
    15:00 +34°C° 0 mm 2 mps 754 mmHg 63%
    16:00 +35°C° 0 mm 2 mps 754 mmHg 61%
    17:00 +35°C° 0 mm 2 mps 754 mmHg 63%
    18:00 +34°C° 0 mm 2 mps 754 mmHg 64%
    19:00 +34°C° 0 mm 2 mps 755 mmHg 66%
    20:00 +34°C° 0 mm 2 mps 755 mmHg 65%
    21:00 +34°C° 0 mm 3 mps 755 mmHg 64%
    22:00 +34°C° 0 mm 3 mps 755 mmHg 64%
    23:00 +33°C° 0 mm 3 mps 755 mmHg 64%
    Show more